Location: Lake Arresoe
(56.0000°N, 12.5000°E)
Time: 17:49:20
(UTC+02:00)

Resurs 1-4 Rocket - Pass Details

Date: 28 July 2021
Orbit: 799 x 815 km, 98.6° (Epoch: 23 September)

Event Time Altitude Azimuth Distance (km) Brightness Sun altitude
Rises 00:53:52 0° 29° (NNE) 3,350 6.3 -14.9°
Reaches altitude 10° 00:58:37 10° 67° (ENE) 2,406 4.8 -14.9°
Maximum altitude 00:59:44 11° 79° (E) 2,361 4.6 -14.9°
Drops below altitude 10° 01:00:50 10° 91° (E) 2,400 4.5 -14.9°
Enters shadow 01:04:07 - 121° (ESE) 2,947 4.7 -15.0°
